Location: Newark
(42.8200°N, 13.1900°E)
Time: 10:52:30
(UTC+00:00)

STARLINK-1311 - Pass Details

Date: 07 April 2020
Orbit: 349 x 359 km, 53.0° (Epoch: 05 June)

Event Time Altitude Azimuth Distance (km) Brightness Sun altitude
Exits shadow 03:24:05 - 316° (NW) 1,845 6.1 -13.9°
Reaches altitude 10° 03:25:44 10° 336° (NNW) 1,369 5.6 -13.6°
Maximum altitude 03:27:28 14° 10° (N) 1,150 5.7 -13.3°
Drops below altitude 10° 03:29:09 10° 44° (NE) 1,351 6.8 -13.0°
Sets 03:31:52 0° 72° (ENE) 2,185 8.8 -12.6°
